FENGYUN 1C DEB, 29967

Orbit data source: Space-Track

FENGYUN 1C DEB, 29967 is space debris in SSO originally from a launch on Mon, 10 May 1999 UTC launched from the Taiyaun Space Center, China (TSC). Fengyun 1C debris stems from the Chinese weather satellite Fengyun-1C, which was intentionally destroyed by a Chinese anti-satellite missile in 2007. This event dramatically increased the amount of space debris, with thousands of trackable fragments posing hazards to satellites and human spaceflight. The Fengyun 1C debris cloud has become a focal point in discussions about space sustainability and the need for international regulations to prevent the creation of new debris.

Loading next visibility...
Identifier
29967, 1999-025KR
Orbit
SSO
Country
Flag of CNCN / PRC
Related business
Manufacturer
Unknown
Mission
Spacecraft
Bus & Motor
Unknown
Mass
Unknown
Launch date (UTC)
1999-05-10 (27 years ago)
Launch vehicle
Unknown
Launch site
Taiyaun Space Center, China (TSC)
Object type
Payload
Rocket body
Debris
Shape & HBR
Unknown shape, 0.1 m
Radar Cross Section
Small (<0.1 m²)

Expand to show TLE details & history
Last TLE update: 10 hours ago

TLE from 10 hours ago
0 FENGYUN 1C DEB
1 29967U 99025KR  26208.19759104  .00002378  00000-0  10064-2 0  9995
2 29967  98.8563 291.6767 0073263   0.9143  28.2568 14.25015576  4146
Epoch: 2026-07-27T04:44Z
TLE epoch observation values (Epoch: 2026-07-27T04:44:31.865Z)
Latitude
29.23418°
Longitude
-89.31667°
Altitude
765.769 km
Speed
7.498 km/s
True Right ascension
19h 06m 48s
True Declination
29° 05' 17"
Sunlit
Object was in full shadow at epoch
Visualization orbit readout
Latitude
Unknown
Longitude
Unknown
Altitude
Unknown
Speed
Unknown
Apparent Right ascension
Unknown
Apparent Declination
Unknown
Sunlit
N/A
Visualization observer readout
Local Sidereal Time
03:39:06
Azimuth
Unknown
Elevation
Unknown
Doppler factor
Unknown
Orbital elements
Apogee altitude
858.229 km
Perigee altitude
752.969 km
Semi-major axis
7,183.736 km
Eccentricity
0.00733
Inclination
98.8563°
RAAN
291.6767°
Arg. of periapsis
0.9143°
True anomaly
28.65748°
Mean anomaly
28.2568°
Eccentric anomaly
28.45682°
Mean motion
3.56466 °/min
Orbital period
100.99 mins
BSTAR
0.0010064
Loading maneuver chart data...
Computing Atmospheric mass density...
Loading historical data...
Loading historical data...
Loading historical data...
Loading historical data...
Loading historical data...
Loading historical data...
Loading historical data...

Documentation

Showing up to 5 results
|